[[{"header":{"parameterUnit":"m.s-1","parameterCategory":2,"la1":30.2991,"la2":30.254,"lo1":-89.0895,"lo2":-89.0444,"dy":0.0017,"dx":0.0017,"nx":28,"ny":28,"refTime":"2024-12-11T03:00:00:Z","depth":"0","parameterNumber":2,"parameterNumberName":"U-component_of_CURRENTS"},"data":[0,0,0,0,0,0,0,0,0,0,0,0,0,0,0,0,0,0,0,0,0,0,0,0,0,0,0,0,0,0,0,0,0,0,0,0,0,0,0,0,0,0,0,0,0,0,0,0,0,0,0,0,0,0,0,0,0,0,0.2672,0.2673,0,0.2716,0.2716,0.2715,0.2671,0.2671,0.267,0.2669,0.2607,0.2606,0.2605,0,0,0,0,0,0,0,0,0,0,0,0,0,0.2651,0.2649,0.2672,0.2673,0.2675,0.2716,0.2716,0.2715,0.2671,0.2671,0.267,0.2669,0.2607,0.2606,0.2605,0,0,0,0,0,0,0,0,0,0,0,0,0,0.2662,0.2649,0.2671,0.2667,0.2668,0.2716,0.2715,0.2715,0.2671,0.2671,0.267,0.2669,0.2608,0.2606,0.2605,0.2613,0,0,0.26,0.2599,0,0,0,0,0,0,0,0,0.2661,0.2661,0.2666,0.2668,0.2669,0.2698,0.2686,0.268,0.2672,0.2657,0.2669,0.2668,0.2636,0.2632,0.2627,0.261,0.2607,0.2599,0.2598,0.2598,0.2597,0,0,0,0,0,0,0,0.266,0.266,0.2677,0.2668,0.267,0.2699,0.2697,0.2685,0.264,0.2658,0.2658,0.2683,0.2634,0.2628,0.2625,0.2606,0.26,0.2598,0.2597,0.2596,0.259,0.2591,0,0,0,0,0,0,0.2675,0.2658,0.2676,0.2679,0.2677,0.27,0.2698,0.2679,0.2642,0.264,0.2684,0.2681,0.2632,0.2627,0.2622,0.2618,0.2598,0.2596,0.2595,0.2589,0.259,0.2591,0,0,0,0,0,0,0.2673,0.2674,0.2674,0.2683,0.2686,0.2702,0.2682,0.2681,0.2677,0.2665,0.2658,0.2683,0.2631,0.2625,0.2607,0.2615,0.2596,0.2594,0.2588,0.2589,0.259,0.2616,0,0,0,0,0,0,0.2672,0.2672,0.2665,0.2682,0.2686,0.2716,0.2684,0.2683,0.27,0.2696,0.2662,0.2655,0.263,0.261,0.2606,0.2613,0.2593,0.2587,0.2589,0.259,0.2615,0.2618,0.2622,0,0,0,0,0,0.267,0.2681,0.2662,0.2667,0.2673,0.2719,0.2722,0.2724,0.2701,0.2711,0.2675,0.2656,0.2617,0.2609,0.2604,0.2611,0.2586,0.2588,0.259,0.2613,0.2618,0.2622,0,0,0,0,0,0,0.2686,0.2679,0.2659,0.2669,0.2695,0.2716,0.2741,0.273,0.271,0.2699,0.266,0.2652,0.2649,0.2628,0.262,0.2616,0.2602,0.2602,0.2621,0.2625,0.2629,0.2656,0.2591,0,0,0,0,0,0.2683,0.2672,0.2688,0.2699,0.2713,0.272,0.2738,0.2737,0.2732,0.2722,0.2695,0.2667,0.2655,0.2636,0.263,0.2617,0.2628,0.2622,0.2625,0.2628,0.2649,0.2664,0.2671,0.2597,0.2597,0.2597,0,0,0.2696,0.2694,0.2689,0.2701,0.2716,0.2726,0.2725,0.2762,0.2758,0.2719,0.2697,0.2687,0.266,0.2651,0.2647,0.2628,0.2657,0.263,0.2633,0.2652,0.2667,0.2674,0.2681,0.2598,0.2598,0.2598,0,0,0.2722,0.2712,0.2706,0.272,0.2751,0.2756,0.2767,0.278,0.2775,0.2763,0.2739,0.2736,0.2697,0.2688,0.2674,0.2696,0.2688,0.2689,0.271,0.2724,0.273,0.2736,0.2766,0.2775,0.2674,0.2674,0.2674,0,0.2734,0.2719,0.2725,0.2728,0.2749,0.2763,0.2775,0.2775,0.2776,0.2781,0.276,0.274,0.2719,0.2716,0.272,0.2705,0.2715,0.269,0.2729,0.2735,0.274,0.277,0.2778,0.2675,0.2675,0.2675,0.2675,0,0.2742,0.2737,0.2754,0.2733,0.2758,0.2787,0.2795,0.2804,0.2796,0.2793,0.2807,0.2785,0.2775,0.2767,0.2743,0.2771,0.2769,0.2743,0.2717,0.2749,0.2778,0.2787,0.2678,0.2677,0.2677,0.2676,0,0,0.274,0.2749,0.2749,0.2752,0.2765,0.2792,0.2797,0.282,0.2835,0.2824,0.2845,0.2826,0.2834,0.2823,0.2805,0.281,0.2855,0.2791,0.2791,0.2822,0.2902,0.293,0.2942,0.2828,0.283,0.2831,0.2909,0,0.2742,0.2753,0.2752,0.2769,0.2785,0.28,0.2812,0.2831,0.2845,0.2867,0.2865,0.288,0.2846,0.2855,0.2856,0.2868,0.2879,0.2838,0.2867,0.2869,0.289,0.2954,0.3023,0.3101,0.2917,0.2919,0.292,0,0.2735,0.2749,0.2766,0.28,0.2809,0.2814,0.2861,0.2874,0.2906,0.2923,0.2937,0.2941,0.2964,0.2927,0.2959,0.2932,0.2928,0.2927,0.2928,0.2957,0.2914,0.3039,0.3124,0.3165,0.2933,0.2932,0.2931,0,0.2743,0.276,0.278,0.2786,0.2818,0.2833,0.2854,0.2891,0.2928,0.2968,0.3005,0.3017,0.3047,0.3038,0.3039,0.3001,0.308,0.302,0.3044,0.3045,0.3115,0.3121,0.3248,0.3048,0.3048,0.3048,0.3048,0,0.2746,0.2763,0.2784,0.2795,0.283,0.285,0.29,0.2922,0.298,0.3027,0.3039,0.3087,0.3077,0.311,0.3082,0.3115,0.3114,0.3083,0.3077,0.3127,0.3132,0.3177,0.3165,0.3051,0.305,0.3049,0.3049,0,0.2745,0.276,0.2786,0.2819,0.2832,0.2857,0.2923,0.2964,0.3021,0.3086,0.3107,0.3167,0.322,0.3218,0.3232,0.3195,0.3165,0.3205,0.3277,0.3278,0.3316,0.3301,0.3119,0.3037,0.3247,0.3249,0.325,0,0.2741,0.2752,0.2792,0.2811,0.2822,0.2868,0.2905,0.2972,0.3022,0.3128,0.3162,0.3249,0.3318,0.3381,0.3363,0.3367,0.3233,0.3389,0.3323,0.3368,0.3346,0.3063,0.2985,0.343,0.3432,0.3434,0.3436,0,0.2731,0.2744,0.2764,0.2801,0.2835,0.288,0.2936,0.299,0.307,0.3156,0.3259,0.3334,0.3436,0.3503,0.3521,0.3503,0.3318,0.3428,0.3463,0.3509,0.3221,0.3125,0.333,0.3454,0.3452,0.3451,0.345,0.3449,0.2716,0.2722,0.2747,0.2775,0.2819,0.2865,0.2888,0.2981,0.3077,0.3191,0.3292,0.3446,0.3616,0.3683,0.3623,0.3662,0.3429,0.3633,0.3616,0.3323,0.323,0.3483,0.3595,0.3594,0.3593,0.3593,0.3592,0,0.2685,0.2692,0.2719,0.2747,0.2769,0.2809,0.2882,0.2909,0.3003,0.322,0.334,0.3627,0.3775,0.3848,0.3968,0.3917,0.3621,0.384,0.3529,0.3444,0.3733,0.374,0.3904,0.3904,0.3904,0.3904,0.3904,0.3904,0.2671,0.2663,0.2669,0.2677,0.2698,0.2705,0.273,0.2804,0.2956,0.3189,0.34,0.3563,0.3876,0.4166,0.4245,0.4133,0.3847,0.3686,0.3539,0.3911,0.389,0.3871,0.3877,0.4067,0.4067,0.3147,0.3142,0.3138]},{"header":{"parameterUnit":"m.s-1","parameterCategory":2,"la1":30.2991,"la2":30.254,"lo1":-89.0895,"lo2":-89.0444,"dy":0.0017,"dx":0.0017,"nx":28,"ny":28,"refTime":"2024-12-11T03:00:00:Z","depth":"0","parameterNumber":3,"parameterNumberName":"V-component_of_CURRENTS"},"data":[0,0,0,0,0,0,0,0,0,0,0,0,0,0,0,0,0,0,0,0,0,0,0,0,0,0,0,0,0,0,0,0,0,0,0,0,0,0,0,0,0,0,0,0,0,0,0,0,0,0,0,0,0,0,0,0,0,0,0.0046,0.0045,0,0.0006,0.0006,0.0006,-0.0002,-0.0002,-0.0002,-0.0002,-0.0026,-0.0026,-0.0027,0,0,0,0,0,0,0,0,0,0,0,0,0,0.0041,0.0043,0.0046,0.0045,0.0044,0.0006,0.0006,0.0006,-0.0002,-0.0002,-0.0002,-0.0003,-0.0026,-0.0026,-0.0027,0,0,0,0,0,0,0,0,0,0,0,0,0,0.0033,0.0043,0.0047,0.0031,0.0029,0.0006,0.0006,0.0006,-0.0002,-0.0002,-0.0002,-0.0003,-0.0026,-0.0026,-0.0027,-0.0024,0,0,-0.0029,-0.0029,0,0,0,0,0,0,0,0,0.0033,0.0034,0.0035,0.0032,0.003,0.0002,-0.0005,-0.0005,-0.0002,0.0016,-0.0002,-0.0003,-0.0019,-0.002,-0.0019,-0.0025,-0.0026,-0.0029,-0.0029,-0.003,-0.003,0,0,0,0,0,0,0,0.0034,0.0035,0.0037,0.0033,0.003,0.0,0.0,-0.0005,0.0006,0.0015,0.0013,-0.0001,-0.0019,-0.0018,-0.0019,-0.0026,-0.0029,-0.0029,-0.003,-0.003,-0.0021,-0.002,0,0,0,0,0,0,0.0032,0.0036,0.0038,0.0035,0.0024,0.0001,0.0001,0.0016,0.0006,0.0002,-0.0001,-0.0001,-0.0017,-0.0019,-0.002,0.0002,-0.003,-0.003,-0.0031,-0.0022,-0.0021,-0.002,0,0,0,0,0,0,0.0032,0.0034,0.0039,0.0028,0.0025,0.0001,0.0018,0.0015,0.0013,-0.0007,-0.001,-0.0001,-0.0017,-0.0019,-0.0013,-0.0,-0.003,-0.0031,-0.0022,-0.0021,-0.0021,0.0033,0,0,0,0,0,0,0.0033,0.0035,0.0043,0.0029,0.0026,0.0036,0.0018,0.0014,0.0002,0.0001,-0.0008,-0.0011,-0.0018,-0.0012,-0.0014,-0.0001,-0.0031,-0.0023,-0.0022,-0.0021,0.0031,0.0036,0.0041,0,0,0,0,0,0.0033,0.004,0.0045,0.0044,0.0041,0.0036,0.0033,0.0016,0.0003,0.0012,0.0006,-0.0011,-0.0006,-0.0012,-0.0014,-0.0002,-0.0024,-0.0022,-0.0021,0.0029,0.0035,0.004,0,0,0,0,0,0,0.0031,0.0039,0.0044,0.0052,0.005,0.0032,0.0027,0.0017,0.0019,0.0019,0.0001,-0.0001,0.0008,-0.0005,-0.001,0.0004,-0.0019,-0.0018,0.0019,0.0025,0.003,0.0032,-0.0032,0,0,0,0,0,0.0039,0.0055,0.0053,0.0059,0.006,0.0046,0.0039,0.0036,0.0029,0.0029,0.0021,0.0013,0.0012,0.0013,0.001,0.0019,-0.001,0.0024,0.0029,0.0033,0.0033,0.0004,0.0006,-0.0016,-0.0016,-0.0016,0,0,0.0035,0.0041,0.0048,0.006,0.0057,0.0072,0.0043,0.0042,0.0058,0.0027,0.0045,0.003,0.0018,0.0033,0.0035,0.0024,0.0024,0.0035,0.0039,0.0036,0.0005,0.0007,0.0009,-0.0015,-0.0015,-0.0015,0,0,0.0042,0.005,0.0073,0.0081,0.0083,0.0082,0.0083,0.0078,0.0082,0.0095,0.0077,0.007,0.007,0.0065,0.0061,0.0089,0.005,0.0087,0.0115,0.0087,0.0088,0.0089,0.0054,0.0052,0.009,0.009,0.009,0,0.0038,0.0075,0.0074,0.0099,0.0107,0.009,0.0118,0.0121,0.0119,0.0126,0.011,0.0099,0.0085,0.0096,0.0107,0.01,0.0074,0.0096,0.0093,0.0093,0.0093,0.0057,0.0053,0.0093,0.0093,0.0093,0.0092,0,0.0074,0.01,0.0109,0.015,0.0159,0.0175,0.0184,0.0197,0.019,0.0185,0.019,0.0167,0.0159,0.0152,0.0138,0.0136,0.0114,0.0102,0.0078,0.0099,0.0059,0.0054,0.0097,0.0096,0.0095,0.0095,0,0,0.008,0.0128,0.0134,0.0168,0.0192,0.0208,0.0238,0.0262,0.0284,0.0265,0.0281,0.0261,0.0231,0.0224,0.0199,0.0171,0.0145,0.0139,0.0136,0.0105,0.0077,0.0054,0.0046,0.0132,0.0131,0.0131,0.0049,0,0.0113,0.0174,0.019,0.0247,0.0283,0.0289,0.0323,0.034,0.0342,0.0353,0.0313,0.0313,0.0265,0.0261,0.0226,0.0172,0.0135,0.0168,0.0061,0.0058,0.0036,0.0041,0.0061,-0.0011,0.0044,0.0043,0.0042,0,0.0155,0.0194,0.0257,0.0319,0.0335,0.0365,0.0419,0.0448,0.0454,0.0455,0.0432,0.0394,0.0355,0.0308,0.0209,0.0232,0.0157,0.0102,0.0098,0.0054,0.0027,-0.0022,-0.0022,-0.0184,0.0034,0.0035,0.0036,0,0.0179,0.0244,0.0299,0.0319,0.0381,0.0414,0.0446,0.0474,0.052,0.0512,0.053,0.0462,0.0444,0.0339,0.022,0.0214,0.0102,0.0081,-0.0016,-0.0019,-0.0035,-0.0038,-0.0204,-0.0001,-0.0001,-0.0001,-0.0,0,0.0215,0.026,0.0315,0.0348,0.0426,0.0451,0.0531,0.0552,0.0593,0.065,0.058,0.0604,0.0451,0.0369,0.0242,0.0102,0.0116,-0.0015,-0.004,-0.0016,-0.0016,-0.0184,-0.0298,-0.0004,-0.0003,-0.0002,-0.0002,0,0.0235,0.0267,0.034,0.0412,0.0442,0.0499,0.0603,0.0665,0.0684,0.0754,0.0755,0.0711,0.0608,0.0441,0.0274,0.0146,-0.0098,-0.0055,-0.002,-0.0041,-0.0281,-0.0392,-0.0558,-0.0675,-0.0176,-0.0177,-0.0177,0,0.0252,0.0292,0.0388,0.0449,0.0486,0.0576,0.0653,0.0709,0.0787,0.083,0.0877,0.0792,0.0778,0.0517,0.0262,0.0025,-0.0135,-0.0127,-0.0139,-0.0299,-0.0441,-0.047,-0.0559,-0.0143,-0.0144,-0.0144,-0.0144,0,0.0296,0.0327,0.0394,0.0513,0.0602,0.071,0.0819,0.0898,0.0967,0.1035,0.1106,0.1091,0.0834,0.0626,0.0277,0.0092,-0.0254,-0.0144,-0.0316,-0.0442,-0.0477,-0.0599,-0.0095,-0.0148,-0.0148,-0.0147,-0.0147,-0.0147,0.0335,0.0394,0.0488,0.0602,0.0708,0.0844,0.0953,0.1076,0.1216,0.1352,0.1304,0.137,0.1007,0.0552,0.0224,-0.0298,-0.0301,-0.0415,-0.054,-0.0554,-0.0662,-0.0173,-0.0249,-0.0249,-0.0249,-0.0249,-0.0249,0,0.0401,0.0475,0.0581,0.0725,0.0851,0.0892,0.1075,0.1204,0.1392,0.1539,0.1623,0.1535,0.1078,0.0567,-0.0145,-0.0567,-0.0734,-0.0804,-0.0852,-0.0932,-0.0495,-0.0489,-0.0611,-0.0611,-0.061,-0.061,-0.061,-0.061,0.0439,0.0562,0.0618,0.0831,0.0934,0.1123,0.1239,0.1423,0.1591,0.1821,0.1924,0.1938,0.1596,0.0355,-0.057,-0.0878,-0.1223,-0.1272,-0.1458,-0.1166,-0.1138,-0.1112,-0.1131,-0.1385,-0.1387,-0.1803,-0.1808,-0.1811]}],[{"header":{"parameterUnit":"m.s-1","parameterCategory":2,"la1":30.2991,"la2":30.254,"lo1":-89.0895,"lo2":-89.0444,"dy":0.0017,"dx":0.0017,"nx":28,"ny":28,"refTime":"2024-12-11T03:00:00:Z","depth":"2","parameterNumber":2,"parameterNumberName":"U-component_of_CURRENTS"},"data":[0,0,0,0,0,0,0,0,0,0,0,0,0,0,0,0,0,0,0,0,0,0,0,0,0,0,0,0,0,0,0,0,0,0,0,0,0,0,0,0,0,0,0,0,0,0,0,0,0,0,0,0,0,0,0,0,0,0,0.2644,0.2645,0,0.2683,0.2682,0.2682,0.2638,0.2637,0.2637,0.2636,0.2573,0.2572,0.2571,0,0,0,0,0,0,0,0,0,0,0,0,0,0.2618,0.2617,0.2644,0.2645,0.2647,0.2683,0.2682,0.2681,0.2638,0.2637,0.2637,0.2636,0.2574,0.2572,0.2571,0,0,0,0,0,0,0,0,0,0,0,0,0,0.2628,0.2616,0.2643,0.2638,0.2639,0.2683,0.2682,0.2681,0.2638,0.2637,0.2636,0.2636,0.2574,0.2572,0.2571,0.2576,0,0,0.2565,0.2564,0,0,0,0,0,0,0,0,0.2627,0.2627,0.2638,0.2639,0.264,0.2665,0.2651,0.2645,0.2638,0.2626,0.2636,0.2635,0.2603,0.2599,0.2592,0.2573,0.257,0.2565,0.2564,0.2563,0.2563,0,0,0,0,0,0,0,0.2627,0.2626,0.2646,0.264,0.2641,0.2665,0.2663,0.2649,0.2607,0.2627,0.2627,0.2651,0.2601,0.2594,0.259,0.2569,0.2565,0.2563,0.2562,0.2562,0.2552,0.2552,0,0,0,0,0,0,0.2643,0.2625,0.2646,0.2649,0.2646,0.2667,0.2664,0.2648,0.2609,0.2607,0.2651,0.2649,0.2597,0.2592,0.2588,0.2583,0.2563,0.2561,0.256,0.2551,0.2552,0.2553,0,0,0,0,0,0,0.2641,0.2642,0.2644,0.265,0.2654,0.2668,0.265,0.265,0.2645,0.2632,0.2624,0.265,0.2596,0.259,0.2572,0.258,0.2561,0.2559,0.255,0.2551,0.2552,0.2578,0,0,0,0,0,0,0.2639,0.264,0.2635,0.265,0.2654,0.2683,0.2653,0.2651,0.2667,0.2663,0.2628,0.2621,0.2595,0.2575,0.257,0.2577,0.2558,0.2549,0.255,0.2552,0.2576,0.258,0.2584,0,0,0,0,0,0.2637,0.265,0.2632,0.2637,0.2643,0.2685,0.2688,0.2689,0.2668,0.2677,0.2641,0.2622,0.2581,0.2574,0.2568,0.2575,0.2548,0.255,0.2552,0.2575,0.258,0.2583,0,0,0,0,0,0,0.2652,0.2648,0.2629,0.264,0.2664,0.2683,0.2706,0.2696,0.2675,0.2664,0.2626,0.2617,0.2614,0.2592,0.2584,0.2579,0.2565,0.2566,0.2585,0.2589,0.2592,0.262,0.2556,0,0,0,0,0,0.2649,0.2641,0.2657,0.2669,0.2682,0.2687,0.2704,0.2702,0.2697,0.2686,0.2658,0.2631,0.2618,0.26,0.2593,0.2578,0.2589,0.2583,0.2587,0.259,0.261,0.2625,0.2632,0.2559,0.2558,0.2558,0,0,0.2662,0.2662,0.2658,0.2671,0.2684,0.2692,0.2692,0.2727,0.2722,0.2683,0.266,0.2651,0.2623,0.2613,0.2609,0.259,0.2618,0.2592,0.2594,0.2614,0.2628,0.2635,0.2642,0.256,0.2559,0.2559,0,0,0.2687,0.268,0.2675,0.2688,0.2718,0.2722,0.2732,0.2743,0.2738,0.2725,0.2701,0.2698,0.2659,0.2649,0.2635,0.2656,0.2649,0.265,0.2671,0.2685,0.2691,0.2697,0.2727,0.2735,0.2635,0.2635,0.2635,0,0.2698,0.2686,0.2692,0.2695,0.2715,0.2729,0.2739,0.2738,0.2737,0.2742,0.2722,0.2702,0.268,0.2677,0.2682,0.2666,0.2676,0.2652,0.269,0.2696,0.2701,0.273,0.2739,0.2637,0.2637,0.2636,0.2636,0,0.2706,0.2702,0.2718,0.2699,0.2722,0.275,0.2756,0.2764,0.2757,0.2754,0.2767,0.2745,0.2736,0.2727,0.2703,0.2732,0.273,0.2704,0.2678,0.271,0.2739,0.2748,0.2639,0.2638,0.2638,0.2638,0,0,0.2706,0.2714,0.2715,0.2717,0.2729,0.2755,0.2758,0.2781,0.2796,0.2784,0.2804,0.2786,0.2794,0.2783,0.2766,0.2771,0.2816,0.2752,0.2752,0.2783,0.2862,0.2889,0.2901,0.2789,0.279,0.2791,0.2869,0,0.2708,0.2718,0.2717,0.2733,0.2749,0.2762,0.2772,0.2791,0.2804,0.2825,0.2824,0.2839,0.2806,0.2815,0.2816,0.2828,0.2839,0.2799,0.2827,0.2829,0.2849,0.2912,0.2571,0.2614,0.2877,0.2879,0.288,0,0.2703,0.2716,0.2733,0.2764,0.2773,0.2777,0.2823,0.2835,0.2865,0.2882,0.2896,0.2899,0.2923,0.2887,0.2918,0.2892,0.2888,0.2887,0.2888,0.2916,0.2873,0.2624,0.262,0.2894,0.2893,0.2892,0.2891,0,0.2713,0.2728,0.2748,0.2753,0.2782,0.2798,0.2817,0.2852,0.2888,0.2928,0.2964,0.2975,0.3005,0.2997,0.2998,0.2961,0.3038,0.2979,0.3002,0.3003,0.2724,0.2699,0.3007,0.3007,0.3007,0.3007,0.3006,0,0.2718,0.2734,0.2754,0.2764,0.2798,0.2817,0.2865,0.2886,0.2942,0.2988,0.2999,0.3045,0.3036,0.3068,0.3041,0.3073,0.3073,0.3041,0.3035,0.2726,0.2703,0.2946,0.2938,0.3009,0.3009,0.3008,0.3008,0,0.2719,0.2734,0.2758,0.279,0.2802,0.2827,0.289,0.293,0.2984,0.3047,0.3068,0.3126,0.3177,0.3175,0.3189,0.3152,0.3159,0.3161,0.2823,0.2778,0.3101,0.3093,0.3199,0.3201,0.3202,0.3204,0.3205,0,0.2716,0.2728,0.2766,0.2784,0.2795,0.2839,0.2875,0.2939,0.2988,0.3089,0.3122,0.3207,0.3253,0.3315,0.3187,0.316,0.3241,0.2915,0.2794,0.3143,0.3125,0.3115,0.3106,0.2417,0.2412,0.2407,0.2404,0,0.2708,0.2721,0.2741,0.2776,0.2809,0.2853,0.2907,0.2959,0.3035,0.3089,0.3188,0.3242,0.3248,0.3064,0.3039,0.2971,0.2892,0.2835,0.3252,0.2459,0.2422,0.2401,0.2413,0.2364,0.2368,0.2371,0.2373,0.2375,0.2694,0.27,0.2724,0.2752,0.2794,0.2838,0.286,0.2825,0.2873,0.2804,0.305,0.2941,0.295,0.2699,0.2622,0.2513,0.2722,0.2593,0.2598,0.2609,0.2543,0.2515,0.2461,0.2465,0.2469,0.2472,0.2475,0,0.2617,0.2671,0.2696,0.2724,0.2677,0.2784,0.2854,0.2705,0.2595,0.2558,0.2528,0.2309,0.2202,0.2224,0.196,0.2008,0.1875,0.198,0.1752,0.1795,0.1832,0.1717,0.142,0.1418,0.1415,0.1412,0,0,0.2591,0.256,0.2565,0.2527,0.2592,0.2462,0.2482,0.2266,0.213,0.1889,0.1791,0.1884,0.2094,0.1669,0.1658,0.15,0.162,0.143,0.2267,0.2035,0.2067,0.2177,0.2051,0,0,0,0,0]},{"header":{"parameterUnit":"m.s-1","parameterCategory":2,"la1":30.2991,"la2":30.254,"lo1":-89.0895,"lo2":-89.0444,"dy":0.0017,"dx":0.0017,"nx":28,"ny":28,"refTime":"2024-12-11T03:00:00:Z","depth":"2","parameterNumber":3,"parameterNumberName":"V-component_of_CURRENTS"},"data":[0,0,0,0,0,0,0,0,0,0,0,0,0,0,0,0,0,0,0,0,0,0,0,0,0,0,0,0,0,0,0,0,0,0,0,0,0,0,0,0,0,0,0,0,0,0,0,0,0,0,0,0,0,0,0,0,0,0,0.0078,0.0077,0,0.004,0.004,0.0041,0.0032,0.0032,0.0032,0.0032,0.0009,0.0009,0.0008,0,0,0,0,0,0,0,0,0,0,0,0,0,0.0074,0.0075,0.0078,0.0077,0.0076,0.004,0.004,0.0041,0.0033,0.0032,0.0032,0.0032,0.0009,0.0009,0.0008,0,0,0,0,0,0,0,0,0,0,0,0,0,0.0066,0.0076,0.0078,0.0063,0.0061,0.004,0.004,0.0041,0.0033,0.0032,0.0032,0.0031,0.0009,0.0009,0.0008,0.0013,0,0,0.0007,0.0007,0,0,0,0,0,0,0,0,0.0067,0.0067,0.0066,0.0064,0.0062,0.0036,0.0031,0.003,0.0033,0.005,0.0032,0.0031,0.0016,0.0015,0.0017,0.0012,0.0011,0.0007,0.0006,0.0006,0.0006,0,0,0,0,0,0,0,0.0067,0.0068,0.0069,0.0065,0.0062,0.0035,0.0034,0.0031,0.004,0.0048,0.0046,0.0033,0.0015,0.0017,0.0016,0.0011,0.0007,0.0006,0.0006,0.0006,0.0017,0.0017,0,0,0,0,0,0,0.0064,0.0069,0.007,0.0067,0.0057,0.0035,0.0035,0.0049,0.004,0.0036,0.0033,0.0032,0.0018,0.0017,0.0015,0.0037,0.0006,0.0006,0.0005,0.0016,0.0017,0.0018,0,0,0,0,0,0,0.0065,0.0066,0.0071,0.0061,0.0059,0.0035,0.0051,0.0048,0.0047,0.0027,0.0025,0.0033,0.0018,0.0016,0.0023,0.0036,0.0005,0.0005,0.0015,0.0016,0.0017,0.0071,0,0,0,0,0,0,0.0066,0.0067,0.0075,0.0062,0.0059,0.0069,0.0051,0.0048,0.0036,0.0035,0.0026,0.0024,0.0018,0.0024,0.0022,0.0034,0.0005,0.0015,0.0016,0.0017,0.0068,0.0073,0.0078,0,0,0,0,0,0.0066,0.0073,0.0077,0.0076,0.0073,0.0069,0.0067,0.0051,0.0037,0.0047,0.0041,0.0024,0.003,0.0024,0.0022,0.0034,0.0014,0.0016,0.0017,0.0066,0.0072,0.0078,0,0,0,0,0,0,0.0065,0.0072,0.0076,0.0083,0.0082,0.0066,0.0061,0.0051,0.0054,0.0054,0.0036,0.0034,0.0044,0.0031,0.0026,0.004,0.0017,0.0018,0.0055,0.0061,0.0066,0.0068,0.0004,0,0,0,0,0,0.0072,0.0087,0.0085,0.0091,0.0092,0.008,0.0072,0.007,0.0064,0.0064,0.0056,0.0049,0.0048,0.0049,0.0047,0.0057,0.0028,0.0061,0.0066,0.007,0.007,0.0042,0.0044,0.0022,0.0022,0.0022,0,0,0.0068,0.0074,0.008,0.0092,0.0089,0.0106,0.0077,0.0076,0.0093,0.0062,0.008,0.0066,0.0054,0.0069,0.0072,0.0061,0.0061,0.0072,0.0076,0.0073,0.0043,0.0045,0.0047,0.0023,0.0023,0.0023,0,0,0.0076,0.0083,0.0106,0.0114,0.0116,0.0115,0.0117,0.0113,0.0117,0.0131,0.0113,0.0106,0.0106,0.0102,0.0098,0.0126,0.0087,0.0124,0.0152,0.0124,0.0125,0.0126,0.0091,0.0089,0.0127,0.0127,0.0127,0,0.0072,0.0108,0.0107,0.0132,0.014,0.0124,0.0153,0.0156,0.0155,0.0162,0.0145,0.0135,0.0122,0.0133,0.0143,0.0136,0.0111,0.0133,0.013,0.013,0.013,0.0094,0.009,0.013,0.013,0.0129,0.0129,0,0.0109,0.0134,0.0143,0.0183,0.0194,0.021,0.0219,0.0233,0.0226,0.0221,0.0226,0.0203,0.0195,0.0188,0.0175,0.0173,0.0151,0.0139,0.0116,0.0135,0.0096,0.0091,0.0134,0.0133,0.0132,0.0131,0,0,0.0114,0.0163,0.0168,0.0202,0.0226,0.0243,0.0274,0.0299,0.032,0.0302,0.0318,0.0298,0.0268,0.0261,0.0236,0.0208,0.0182,0.0176,0.0173,0.0141,0.0113,0.009,0.0082,0.0168,0.0168,0.0168,0.0086,0,0.0147,0.0209,0.0224,0.0282,0.0318,0.0325,0.0359,0.0377,0.0379,0.039,0.035,0.035,0.0302,0.0297,0.0262,0.0209,0.0171,0.0204,0.0098,0.0095,0.0072,0.0077,0.0123,0.0053,0.0081,0.008,0.0079,0,0.0188,0.0227,0.0291,0.0354,0.0371,0.04,0.0455,0.0485,0.0491,0.0492,0.0469,0.043,0.0392,0.0344,0.0245,0.0269,0.0194,0.0139,0.0134,0.009,0.0063,0.0037,0.0042,0.0071,0.0071,0.0072,0.0072,0,0.0211,0.0277,0.0332,0.0353,0.0416,0.0449,0.0482,0.0511,0.0557,0.0549,0.0567,0.0499,0.048,0.0375,0.0256,0.0251,0.0138,0.0118,0.002,0.0018,0.0023,0.0022,0.0036,0.0037,0.0037,0.0037,0.0037,0,0.0246,0.0291,0.0348,0.0381,0.046,0.0486,0.0565,0.0587,0.0629,0.0686,0.0616,0.064,0.0487,0.0405,0.0279,0.0138,0.0152,0.0021,-0.0004,0.0043,0.0044,0.0035,0.0036,0.0034,0.0035,0.0035,0.0036,0,0.0265,0.0297,0.0371,0.0445,0.0475,0.0532,0.0637,0.07,0.0719,0.0789,0.079,0.0746,0.0642,0.0476,0.0309,0.0182,0.0039,-0.0019,0.0041,0.0024,-0.0073,-0.0068,-0.0137,-0.0139,-0.014,-0.0141,-0.0142,0,0.0281,0.0321,0.0419,0.048,0.0517,0.0608,0.0686,0.0742,0.0821,0.0865,0.0912,0.0826,0.0809,0.0549,0.0311,0.0079,0.0032,-0.0066,-0.0074,-0.0073,-0.0091,-0.0084,-0.0078,-0.0048,-0.0048,-0.0048,-0.0048,0,0.0325,0.0356,0.0424,0.0543,0.0632,0.0741,0.0851,0.093,0.1001,0.1068,0.1138,0.1121,0.0877,0.0666,0.0322,0.0162,-0.0027,-0.0075,-0.0083,-0.0009,0.0006,-0.001,-0.0005,-0.0048,-0.0048,-0.0048,-0.0048,-0.0048,0.0364,0.0422,0.0517,0.0631,0.0737,0.0874,0.0984,0.1118,0.126,0.1383,0.1311,0.13,0.1011,0.0615,0.0315,-0.0012,0.0001,-0.0126,-0.0123,-0.0121,-0.0094,-0.0082,-0.0148,-0.0149,-0.0149,-0.015,-0.015,0,0.0453,0.0503,0.0609,0.0754,0.0905,0.0921,0.1105,0.1256,0.146,0.1516,0.1574,0.1309,0.1029,0.0686,0.0227,-0.0058,-0.0066,-0.0171,-0.0115,-0.0112,-0.0111,-0.0082,-0.0134,-0.0135,-0.0136,-0.0136,0,0,0.0497,0.0629,0.0686,0.0909,0.0992,0.1218,0.1335,0.1523,0.1641,0.1756,0.1716,0.1585,0.1152,0.0809,0.0419,0.0148,0.0087,0.0093,0.0115,0.0233,0.0238,-0.0049,0.0003,0,0,0,0,0]}],[{"header":{"parameterUnit":"m.s-1","parameterCategory":2,"la1":30.2991,"la2":30.254,"lo1":-89.0895,"lo2":-89.0444,"dy":0.0017,"dx":0.0017,"nx":28,"ny":28,"refTime":"2024-12-11T03:00:00:Z","depth":"4","parameterNumber":2,"parameterNumberName":"U-component_of_CURRENTS"},"data":[0,0,0,0,0,0,0,0,0,0,0,0,0,0,0,0,0,0,0,0,0,0,0,0,0,0,0,0,0,0,0,0,0,0,0,0,0,0,0,0,0,0,0,0,0,0,0,0,0,0,0,0,0,0,0,0,0,0,0.122,0.1219,0,0.1195,0.1195,0.1196,0.124,0.1241,0.1242,0.1243,0.1327,0.1328,0.133,0,0,0,0,0,0,0,0,0,0,0,0,0,0.1214,0.1215,0.122,0.1219,0.1218,0.1195,0.1195,0.1196,0.124,0.1241,0.1242,0.1243,0.1326,0.1328,0.133,0,0,0,0,0,0,0,0,0,0,0,0,0,0.1214,0.1216,0.122,0.1231,0.1231,0.1195,0.1195,0.1196,0.124,0.1241,0.1242,0.1243,0.1326,0.1328,0.133,0.1322,0,0,0.1337,0.1338,0,0,0,0,0,0,0,0,0.1214,0.1215,0.1231,0.123,0.123,0.1215,0.1223,0.1241,0.124,0.1245,0.1243,0.1244,0.1293,0.1298,0.1301,0.1326,0.133,0.1338,0.1339,0.134,0.1341,0,0,0,0,0,0,0,0.1214,0.1215,0.1218,0.1229,0.1229,0.1205,0.1208,0.1227,0.1272,0.1245,0.1246,0.123,0.1295,0.1299,0.1304,0.1331,0.1338,0.134,0.1341,0.1342,0.1465,0.1467,0,0,0,0,0,0,0.1204,0.1216,0.1219,0.1217,0.1215,0.1204,0.1208,0.1225,0.1269,0.1274,0.1229,0.1232,0.1294,0.1301,0.1307,0.1398,0.134,0.1342,0.1343,0.1463,0.1465,0.1467,0,0,0,0,0,0,0.1205,0.1206,0.122,0.1207,0.1206,0.1203,0.1222,0.1224,0.1252,0.1254,0.1263,0.1256,0.1295,0.1304,0.136,0.1398,0.1343,0.1345,0.1461,0.1464,0.1466,0.1518,0,0,0,0,0,0,0.1205,0.1207,0.123,0.1208,0.1206,0.1221,0.122,0.1222,0.1234,0.1239,0.128,0.1287,0.1297,0.1357,0.1363,0.14,0.1347,0.1459,0.1462,0.1466,0.1514,0.1522,0.1529,0,0,0,0,0,0.1206,0.1205,0.1233,0.1232,0.1235,0.122,0.122,0.1224,0.1235,0.1254,0.1291,0.1288,0.1384,0.136,0.1367,0.1406,0.1457,0.1461,0.1465,0.151,0.1521,0.1529,0,0,0,0,0,0,0.1202,0.1209,0.1238,0.1241,0.1249,0.1226,0.1226,0.1236,0.1277,0.1293,0.1308,0.1319,0.1388,0.1387,0.1361,0.1453,0.1421,0.1426,0.1453,0.1463,0.147,0.1477,0.1349,0,0,0,0,0,0.1215,0.1233,0.1235,0.1244,0.1247,0.125,0.1248,0.126,0.1275,0.1294,0.1328,0.1365,0.1404,0.1426,0.1461,0.1502,0.1504,0.1533,0.1541,0.1547,0.1559,0.1587,0.1598,0.1481,0.1481,0.1481,0,0,0.1213,0.1219,0.123,0.1246,0.1252,0.1268,0.1255,0.126,0.1295,0.1297,0.1371,0.14,0.1424,0.1483,0.1512,0.1489,0.1583,0.1553,0.1558,0.1566,0.1593,0.1604,0.1614,0.1484,0.1484,0.1483,0,0,0.1203,0.1232,0.1248,0.1261,0.1274,0.1281,0.1291,0.1306,0.1341,0.1399,0.1419,0.147,0.1525,0.1553,0.1569,0.1637,0.1629,0.1652,0.169,0.1718,0.1727,0.1735,0.1755,0.1764,0.1648,0.1648,0.1648,0,0.121,0.1236,0.1247,0.1265,0.1276,0.1295,0.1319,0.1349,0.1392,0.1426,0.1437,0.1536,0.1558,0.162,0.1652,0.1655,0.1667,0.165,0.1727,0.1735,0.1742,0.176,0.177,0.1651,0.1651,0.1651,0.165,0,0.1215,0.1247,0.1247,0.13,0.1317,0.1332,0.1371,0.1421,0.1464,0.1496,0.1586,0.1621,0.1675,0.1693,0.1696,0.1766,0.1757,0.1737,0.1698,0.1757,0.1772,0.1782,0.1655,0.1654,0.1654,0.1653,0,0,0.121,0.125,0.1261,0.1292,0.1341,0.1351,0.142,0.148,0.1536,0.1598,0.1668,0.1737,0.1759,0.178,0.1794,0.182,0.1885,0.1808,0.1808,0.182,0.1949,0.182,0.1817,0.1879,0.1881,0.1883,0.1939,0,0.1226,0.1263,0.1286,0.134,0.136,0.1409,0.147,0.1533,0.1599,0.1678,0.1723,0.1802,0.179,0.1832,0.1857,0.1891,0.1913,0.1872,0.1898,0.1899,0.177,0.1825,0.1889,0.1945,0.1947,0.1949,0.195,0,0.1233,0.1258,0.1307,0.1368,0.1385,0.1432,0.1533,0.1593,0.1697,0.1752,0.1824,0.1866,0.1941,0.1915,0.1985,0.1963,0.1966,0.1974,0.1975,0.1843,0.1786,0.1875,0.1967,0.1965,0.1964,0.1963,0.1962,0,0.1213,0.1273,0.1315,0.1336,0.141,0.1461,0.152,0.1623,0.1687,0.1813,0.1874,0.195,0.2014,0.2032,0.2054,0.2034,0.2114,0.2078,0.1959,0.195,0.2025,0.2016,0.2115,0.2115,0.2115,0.2115,0.2115,0,0.1201,0.1237,0.1316,0.1337,0.1403,0.1467,0.1558,0.1633,0.1748,0.1821,0.1917,0.1977,0.2051,0.2098,0.2089,0.2055,0.2139,0.1979,0.1958,0.2046,0.2039,0.2032,0.2021,0.2117,0.2116,0.2116,0.2116,0,0.1157,0.1211,0.126,0.1355,0.139,0.1444,0.1566,0.1625,0.1754,0.1855,0.1903,0.2029,0.209,0.2131,0.2176,0.2095,0.2078,0.2039,0.2147,0.2129,0.1887,0.1879,0.1911,0.1907,0.1904,0.1901,0.1899,0,0.1127,0.1151,0.1259,0.1295,0.1342,0.1429,0.1482,0.1614,0.1674,0.1859,0.1892,0.2018,0.2075,0.2037,0.2086,0.2062,0.2025,0.2001,0.1927,0.1891,0.1869,0.1866,0.1863,0.1893,0.1892,0.1891,0.1891,0,0.1069,0.1128,0.1173,0.1245,0.131,0.1358,0.1451,0.1484,0.1633,0.177,0.1836,0.1871,0.1936,0.1954,0.1959,0.1931,0.2009,0.1964,0.197,0.1901,0.1869,0.185,0.1851,0.1879,0.188,0.1881,0.1882,0,0.1035,0.1053,0.1127,0.1179,0.1249,0.1264,0.1321,0.1386,0.146,0.1662,0.1677,0.1802,0.1921,0.1887,0.1886,0.1859,0.1815,0.1731,0.1748,0.1762,0.1683,0.1619,0.1544,0,0,0,0,0,0.0989,0.1004,0.1049,0.1093,0.1153,0.1185,0.1286,0.1345,0.1493,0.1495,0.1582,0.1631,0.1659,0.1721,0.1658,0.1802,0.1812,0.1719,0.1721,0.1813,0.1826,0.1745,0,0,0,0,0,0,0.096,0.1007,0.102,0.1006,0.1012,0.1054,0.1106,0.1201,0.1209,0.1372,0.1395,0.1518,0.1567,0.1673,0.1623,0.1638,0.16,0.1797,0.1792,0.1805,0.1817,0.1828,0.1749,0,0,0,0,0]},{"header":{"parameterUnit":"m.s-1","parameterCategory":2,"la1":30.2991,"la2":30.254,"lo1":-89.0895,"lo2":-89.0444,"dy":0.0017,"dx":0.0017,"nx":28,"ny":28,"refTime":"2024-12-11T03:00:00:Z","depth":"4","parameterNumber":3,"parameterNumberName":"V-component_of_CURRENTS"},"data":[0,0,0,0,0,0,0,0,0,0,0,0,0,0,0,0,0,0,0,0,0,0,0,0,0,0,0,0,0,0,0,0,0,0,0,0,0,0,0,0,0,0,0,0,0,0,0,0,0,0,0,0,0,0,0,0,0,0,0.0414,0.0414,0,0.0446,0.0446,0.0446,0.0442,0.0442,0.0442,0.0442,0.0427,0.0427,0.0426,0,0,0,0,0,0,0,0,0,0,0,0,0,0.0386,0.0386,0.0414,0.0414,0.0415,0.0446,0.0446,0.0446,0.0442,0.0442,0.0442,0.0442,0.0427,0.0427,0.0426,0,0,0,0,0,0,0,0,0,0,0,0,0,0.0401,0.0386,0.0413,0.0421,0.0422,0.0446,0.0446,0.0446,0.0442,0.0442,0.0442,0.0442,0.0427,0.0427,0.0426,0.0424,0,0,0.0424,0.0424,0,0,0,0,0,0,0,0,0.04,0.0401,0.0419,0.0421,0.0422,0.0444,0.0431,0.0438,0.0442,0.0429,0.0442,0.0442,0.0432,0.0431,0.043,0.0423,0.0423,0.0424,0.0424,0.0424,0.0424,0,0,0,0,0,0,0,0.0399,0.04,0.0421,0.042,0.0422,0.0436,0.0437,0.0432,0.0426,0.043,0.0432,0.0443,0.0431,0.0431,0.043,0.0423,0.0424,0.0424,0.0424,0.0423,0.0402,0.0402,0,0,0,0,0,0,0.0403,0.0399,0.042,0.0423,0.0416,0.0437,0.0438,0.0433,0.0427,0.0428,0.0443,0.0443,0.0432,0.0431,0.0429,0.0433,0.0424,0.0423,0.0423,0.0402,0.0402,0.0402,0,0,0,0,0,0,0.0402,0.0404,0.0419,0.0417,0.042,0.0437,0.0432,0.0434,0.044,0.0438,0.0437,0.0449,0.0432,0.043,0.0429,0.0432,0.0423,0.0423,0.0403,0.0402,0.0402,0.0436,0,0,0,0,0,0,0.0401,0.0403,0.0405,0.0416,0.0421,0.0441,0.0433,0.0435,0.0449,0.0449,0.0442,0.0441,0.0432,0.043,0.0428,0.0431,0.0422,0.0403,0.0403,0.0402,0.0435,0.0436,0.0438,0,0,0,0,0,0.0399,0.0415,0.0404,0.0407,0.042,0.0442,0.0445,0.0454,0.045,0.0457,0.0448,0.0441,0.0425,0.0429,0.0428,0.043,0.0403,0.0403,0.0402,0.0434,0.0436,0.0438,0,0,0,0,0,0,0.0409,0.0417,0.0405,0.0421,0.043,0.0444,0.0462,0.0459,0.0458,0.0459,0.0444,0.0442,0.0439,0.0429,0.0433,0.042,0.0411,0.041,0.0435,0.0437,0.0439,0.0446,0.0422,0,0,0,0,0,0.0409,0.0418,0.0424,0.0436,0.0443,0.0448,0.0459,0.0463,0.0467,0.0467,0.0457,0.0445,0.0434,0.0432,0.0421,0.0421,0.0399,0.0418,0.042,0.0421,0.0424,0.0396,0.0396,0.04,0.04,0.04,0,0,0.0418,0.0424,0.0429,0.0439,0.0447,0.0462,0.0454,0.0479,0.0487,0.0465,0.0469,0.0452,0.0434,0.043,0.0428,0.0425,0.0406,0.042,0.0422,0.0424,0.0395,0.0395,0.0395,0.04,0.04,0.04,0,0,0.0447,0.0442,0.0459,0.0467,0.0484,0.0486,0.0493,0.0502,0.0502,0.0502,0.0485,0.047,0.0457,0.0443,0.0434,0.0437,0.0414,0.0432,0.045,0.0423,0.0422,0.0422,0.0388,0.0384,0.0435,0.0435,0.0435,0,0.0456,0.0473,0.047,0.0488,0.0504,0.0496,0.0519,0.0517,0.0521,0.0522,0.0508,0.0477,0.0461,0.0454,0.0451,0.0442,0.042,0.0448,0.0426,0.0425,0.0423,0.0389,0.0384,0.0436,0.0436,0.0436,0.0436,0,0.0493,0.0508,0.0525,0.0534,0.0546,0.0572,0.0568,0.0573,0.0564,0.0555,0.0543,0.0512,0.0495,0.0482,0.0467,0.0453,0.0438,0.0431,0.0425,0.0425,0.0388,0.0383,0.0438,0.0438,0.0437,0.0437,0,0,0.051,0.0543,0.0548,0.0567,0.0577,0.0596,0.0605,0.0615,0.0625,0.0598,0.06,0.0563,0.054,0.0527,0.0502,0.0473,0.044,0.0452,0.0449,0.0424,0.0375,0.0354,0.0346,0.0432,0.0431,0.0431,0.035,0,0.0541,0.0588,0.0592,0.0636,0.0664,0.0659,0.0671,0.0673,0.066,0.0655,0.0611,0.0599,0.056,0.0552,0.0516,0.0463,0.0428,0.0462,0.0372,0.0369,0.0356,0.034,0.0429,0.0346,0.0345,0.0344,0.0343,0,0.0574,0.0605,0.0656,0.0699,0.071,0.073,0.0754,0.0765,0.0747,0.0733,0.0701,0.0662,0.0616,0.0582,0.0484,0.0508,0.0445,0.0395,0.039,0.0357,0.0339,0.0345,0.0333,0.0334,0.0334,0.0335,0.0336,0,0.0601,0.0651,0.0698,0.0711,0.075,0.0776,0.0796,0.0794,0.0812,0.0783,0.0779,0.0712,0.0684,0.0595,0.0484,0.0486,0.037,0.0361,0.0278,0.0275,0.0305,0.0306,0.0288,0.0288,0.0288,0.0289,0.0289,0,0.0634,0.0676,0.072,0.0749,0.0814,0.0821,0.0876,0.0878,0.0881,0.0899,0.0826,0.081,0.0686,0.0602,0.0498,0.0369,0.0379,0.0275,0.0253,0.0319,0.0323,0.03,0.0303,0.0286,0.0286,0.0287,0.0287,0,0.066,0.0686,0.0751,0.0806,0.0834,0.088,0.0946,0.0979,0.0966,0.0983,0.0976,0.0886,0.0769,0.0634,0.0484,0.0393,0.0269,0.0222,0.0297,0.0281,0.0187,0.0192,0.012,0.0119,0.0117,0.0116,0.0116,0,0.0677,0.0712,0.0797,0.0844,0.0878,0.095,0.1006,0.1028,0.1057,0.1026,0.1034,0.0925,0.0847,0.0616,0.0472,0.0265,0.0235,0.0168,0.0175,0.0184,0.017,0.0177,0.0183,0.0114,0.0113,0.0113,0.0113,0,0.0713,0.0743,0.0794,0.0892,0.0966,0.1048,0.112,0.1143,0.1155,0.1142,0.107,0.0934,0.0797,0.0612,0.0449,0.0303,0.0209,0.0155,0.0156,0.0163,0.0175,0.0164,0.0172,0.0109,0.0109,0.011,0.011,0,0.0739,0.078,0.085,0.0932,0.1028,0.1112,0.115,0.1176,0.12,0.115,0.1126,0.096,0.0867,0.0632,0.0485,0.0333,0.0292,0.0243,0.0239,0.0242,0.0298,0.0333,0.0292,0,0,0,0,0,0.0758,0.0806,0.0885,0.098,0.1073,0.1136,0.1211,0.1234,0.1239,0.1194,0.1156,0.1021,0.0772,0.0667,0.0511,0.0466,0.0274,0.0278,0.0217,0.0086,0.009,0.0133,0,0,0,0,0,0,0.0773,0.0848,0.0884,0.1002,0.1074,0.1188,0.1241,0.1249,0.1218,0.1185,0.1059,0.0979,0.0747,0.0863,0.0507,0.046,0.0398,0.0163,0.0159,0.0083,0.0087,0.0091,0.0137,0,0,0,0,0]}]]